Weather in Michigan City

United States     41°43′08″N   86°54′15″W
temp.,
°C
wind,
m/s
gust,
m/s
humid.,
%
clouds,
%
prec.,
mm/h
press.,
hPa
HPBL,
m
16 september, thu
thu1601:00+18e34610 0.0 1018192
04:00+17ese56600 0.0 1018164
07:00+16se45710 0.0 1020172
10:00+21sse45650 0.0 1020412
13:00+24se01600 0.0 1018191
16:00+25ese34550 0.0 1017300
19:00+22ese58640 0.0 1017139
22:00+21se69660 0.0 1018202
17 september, fri
fri1701:00+19s610770 0.0 1017203
04:00+19s68850 0.0 1017191
07:00+19s698722 0.0 1018224
10:00+22sw57760 0.0 1019285
13:00+25wnw23680 0.0 1018233
16:00+25ne12670 0.0 1016209
19:00+25ese22630 0.0 101611
22:00+23s336614 0.0 101826
18 september, sat
sat1801:00+23sw3374100 0.0 101835
04:00+22w128496 0.0 101826
07:00+22ne2283100 0.0 101948
10:00+22ne227850 0.0 1020145
13:00+21nnw33770 0.0 1020218
16:00+22n55760 0.0 1019243
19:00+22nne56835 0.0 1019187
22:00+22ene45845 0.0 1020131
19 september, sun
sun1901:00+21se45825 0.0 1020123
04:00+21sse46803 0.0 1020121
07:00+20sse46800 0.0 1020134
10:00+24s33710 0.0 102072
13:00+26s11660 0.0 1019235
16:00+28se34550 0.0 1016264
19:00+25se686218 0.0 101674
22:00+23sse5873100 0.0 1017104
20 september, mon
mon2001:00+22sse510796 0.0 1017153
04:00+22sse51078100 0.0 1016179
07:00+21sse51088100 0.3 1016248
10:00+23s6984100 0.1 1016281
13:00+23s71185100 0.3 1015358
16:00+23s8118357 0.0 1014334
19:00+23sse812845 0.1 1013281
22:00+22s10168939 0.0 1013572